Regional Weather Roundup
Issued by NWS Upton, NY

Current Version | Previous Version | Text Only | Print | Product List | Glossary On
Versions: 1 2 3 4 5 6 7 8 9 10 11 12 13 14 15 16 17 18 19 20 21 22 23 24 25 26 27 28 29 30 31 32 33 34 35 36 37 38 39 40 41 42 43 44 45 46 47 48 49 50
473 ASUS41 KOKX 250505 RWROKX REGIONAL WEATHER ROUNDUP NATIONAL WEATHER SERVICE NEW YORK NY 100 AM EDT MON JUL 25 2016 NOTE: "FAIR" INDICATES FEW OR NO CLOUDS BELOW 12,000 FEET WITH NO SIGNIFICANT WEATHER AND/OR OBSTRUCTIONS TO VISIBILITY. NYZ071-072-176-178-NJZ106-104-250600- NEW YORK CITY METRO AREA CITY SKY/WX TMP DP RH WIND PRES REMARKS Central Park PTCLDY 81 66 60 W5 29.99S LaGuardia APRT MOCLDY 84 66 54 S9 29.95F Kennedy INTL MOCLDY 75 70 84 S5 29.97F Newark/Liberty MOCLDY 81 66 60 SW7 29.95F BRNX BOT. GARD N/A 79 66 65 NE1 29.97F Wall St Helipt MOCLDY 81 70 69 W3 29.97S Teterboro PTCLDY 81 65 58 S5 29.94F $$ NYZ177-179-078>081-250600- LONG ISLAND NEW YORK CITY SKY/WX TMP DP RH WIND PRES REMARKS FARMINGDALE PTCLDY 76 70 82 SW6 29.97F ISLIP PTCLDY 75 70 84 S6 29.97F SHIRLEY PTCLDY 74 70 87 S5 29.98F RIVERHEAD NOT AVBL WESTHAMPTON CLEAR 73 67 81 S3 30.00F SOUTHAMPTON N/A 72 68 88 SW2 29.94F BRIDGEHAMPTON N/A 72 66 83 CALM 29.98S EAST HAMPTON FAIR 74 64 71 SW6 29.97F MONTAUK POINT N/A 74 66 76 CALM 29.99F $$ NYZ052-065-067-250600- HUDSON VALLEY CITY SKY/WX TMP DP RH WIND PRES REMARKS WHITE PLAINS CLEAR 72 67 84 CALM 29.97F NEWBURGH CLEAR 75 68 78 VRB5 29.98F MONTGOMERY MOCLDY 69 65 86 CALM 29.96F POUGHKEEPSIE MOCLDY 73 66 78 CALM 29.95S ALBANY CLOUDY 70 62 76 CALM 29.96F $$ NJZ001-105-106-008-010-013-015-019>022-104-250600- NEW JERSEY CITY SKY/WX TMP DP RH WIND PRES REMARKS NEWARK/LIBERTY MOCLDY 81 66 60 SW7 29.95F TETERBORO PTCLDY 81 65 58 S5 29.94F CALDWELL CLOUDY 80 67 64 CALM 29.96S MORRISTOWN CLOUDY 75 64 69 CALM 29.96F SOMERVILLE CLOUDY 74 69 85 CALM 29.95S SUSSEX CLOUDY 71 68 90 CALM 29.97F ANDOVER N/A 72 68 87 CALM 29.98F TRENTON CLOUDY 79 63 57 SW3 29.97S MILLVILLE PTCLDY 77 73 87 CALM 29.98F ATLANTIC CITY MOCLDY 78 74 87 S5 29.98F WRIGHTSTOWN CLOUDY 76 69 79 SW8 29.95S TOMS RIVER PTCLDY 75 72 88 SW6 29.98S BELMAR PTCLDY 76 66 71 S5 29.99S $$ PAZ047>061-062-071-250600- EASTERN PENNSYLVANIA CITY SKY/WX TMP DP RH WIND PRES REMARKS PHILADELPHIA CLOUDY 82 66 58 SW5 29.98S ALLENTOWN PTCLDY 83 65 54 S6 29.96F SCRANTON MOCLDY 79 67 66 SW5 29.97F $$ CTZ002-004>006-009-010-012-RIZ004-006-007-MAZ004-011-015-250600- SOUTHERN NEW ENGLAND IN CT CITY SKY/WX TMP DP RH WIND PRES REMARKS BRADLEY INTL MOCLDY 72 60 66 CALM 29.96F HARTFORD CLEAR 75 67 76 CALM 29.96F DANBURY CLEAR 70 65 84 CALM 29.99F WTRBRY/OXFORD N/A 70 61 73 CALM 30.00F BRIDGEPORT CLEAR 76 70 82 S6 29.96F MERIDEN CLEAR 71 65 81 CALM 29.97F NEW HAVEN CLEAR 70 67 90 CALM 29.97F CHESTER FAIR 73 70 88 VRB6 29.98F GROTON CLEAR 74 67 78 CALM 29.97F WILLIMANTIC NOT AVBL IN RI CITY SKY/WX TMP DP RH WIND PRES REMARKS PROVIDENCE CLEAR 74 64 71 W6 29.97F BLOCK ISLAND PTCLDY 70 67 90 W8 29.99F WESTERLY CLOUDY 72 64 76 CALM 29.98F IN MA CITY SKY/WX TMP DP RH WIND PRES REMARKS BOSTON PTCLDY 69 65 86 CALM 29.97S WORCESTER MOCLDY 69 51 52 SW6 30.01F WESTFIELD MOCLDY 69 60 73 CALM 29.97F PROVINCETOWN PTCLDY 68 66 93 S3 29.97S NANTUCKET CLOUDY 69 67 93 SW8 29.98F $$ ANZ330-335-338-340-345-350-353-355-250600- COASTAL MARINE OBSERVATIONS STATION/POSITION TIME SKY/WX TEMP WIND PRES VSBY WAVE AIR SEA DIR/SP/G HT/PER (UTC) (F) (DEG/KT/KT) (MB) (MI) (FT/S) NY HARB ENTRANCE 0350 76 72 200/ 12/ 14 1014.6 3/ 4 20S FIRE ISLAND 0350 76 73 220/ 10/ 12 1014.7 3/ 6 GREAT SOUTH BAY 0400 75 81 180/ 4/ 6 N/A 23 SSW MONTAUK P 0350 75 72 230/ 10/ 12 1015.7 2/ 6 15 E BARNEGAT LI 0422 76 N/A 2/ 6 HUDSON CANYON 0350 78 78 1015.7 2/ 6 KINGS POINT 0400 78 72 1014.4 EXECUTION ROCKS 0400 77 190/ 4/ 6 N/A CENTRAL LI SOUND 0415 76 74 210/ 10/ 14 N/A 1/ 3 EASTERN LI SOUND 0400 71 69 270/ 2/ 2 N/A ROBBINS REEF 0406 81 240/ 9/ 12 1013.9 $$ >>>>>>>>>>>>>>>>>>>>>>>>>>>> KEY <<<<<<<<<<<<<<<<<<<<<<<<<<< > < > SKY/WX - SKY CONDITION/PRESENT WEATHER < > TMP - TEMPERATURE IN FAHRENHEIT < > DP - DEWPOINT IN FAHRENHEIT < > RH - RELATIVE HUMIDITY IN PERCENT < > WIND - DIRECTION AND SPEED IN MPH < > PRES - MEAN SEA LEVEL PRESSURE IN INCHES OF HG < > WCI - WIND CHILL INDEX < > VSB - VISIBILITY IN MILES < > HX - HEAT INDEX < > TC - TEMPERATURE IN CELSIUS < > VRB - VARIABLE WIND DIRECTION < > < >>>>>>>>>>>>>>>>>>>>>>>>>>>> KEY <<<<<<<<<<<<<<<<<<<<<<<<<<<

USA.gov is the U.S. government's official web portal to all federal, state and local government web resources and services.